Showing default

SIMSAT 1, 26365

Orbit data source: Space-Track

SIMSAT 1, 26365 is a payload satellite owned by Eurockot (CIS) in LEO that was launched on Tue, 16 May 2000 UTC via an ROKOT launch vehicle from the Plesetsk Missile And Space Complex (PKMTR). Payload-class satellites include a variety of spacecraft equipped with specific instruments for various scientific and technological missions. These include communications satellites like Starlink; space stations such as the ISS; scientific satellites like the Hubble; Earth observation satellites from companies like Planet Labs, Umbra, and HawkEye 360; GPS; miniature CubeSats for education and research; and military/defense satellites.

Loading next visibility...
Identifier
26365, 2000-026A
Orbit
LEO
Country
Flag of CISCIS
Related business
Manufacturer
Khrunichev
Mission
Commercial Technology
Bus & Motor
SIMSAT, Unknown motor
Mass
657 kg wet, 657 kg dry
Launch date (UTC)
2000-05-16 (26 years ago)
Launch vehicle
ROKOT
Launch site
Plesetsk Missile And Space Complex (PKMTR)
Object type
Payload
Rocket body
Debris
Shape & HBR
Box + 1 Arm, 1.8 m
Radar Cross Section
9.625 m², Large (>1 m²)

Expand to show TLE details & history
Last TLE update: 10 hours ago

TLE from 10 hours ago
0 SIMSAT 1
1 26365U 00026A   26165.39402802  .00002307  00000-0  82727-4 0  9990
2 26365  86.3437 133.0789 0008269  11.9131 348.2310 15.28101655441966
Epoch: 2026-06-14T09:27Z
TLE epoch observation values (Epoch: 2026-06-14T09:27:24.020Z)
Latitude
-0.00009°
Longitude
88.53341°
Altitude
479.116 km
Speed
7.629 km/s
True Right ascension
08h 52m 18s
True Declination
0° 00' 00"
Sunlit
Object was in daylight at epoch
Visualization orbit readout
Latitude
Unknown
Longitude
Unknown
Altitude
Unknown
Speed
Unknown
Apparent Right ascension
Unknown
Apparent Declination
Unknown
Sunlit
N/A
Visualization observer readout
Local Sidereal Time
06:10:13
Azimuth
Unknown
Elevation
Unknown
Doppler factor
Unknown
Orbital elements
Apogee altitude
483.991 km
Perigee altitude
472.652 km
Semi-major axis
6,856.459 km
Eccentricity
0.00083
Inclination
86.3437°
RAAN
133.0789°
Arg. of periapsis
11.9131°
True anomaly
348.21165°
Mean anomaly
348.231°
Eccentric anomaly
348.22133°
Mean motion
3.8229 °/min
Orbital period
94.17 mins
BSTAR
0.000082727
Loading maneuver chart data...
Computing Atmospheric mass density...
Loading historical data...
Loading historical data...
Loading historical data...
Loading historical data...
Loading historical data...
Loading historical data...
Loading historical data...
Other satellites on launch #26 in the year 2000 (2000-05-16 UTC)

Documentation

Showing up to 5 results
|